Year,Month,Day,Hour,Minute,Value (Times are PST for temperature in C)
2008,03,28,00,00,2.50
2008,03,28,00,01,2.50
2008,03,28,00,02,2.60
2008,03,28,00,03,2.60
2008,03,28,00,04,2.60
2008,03,28,00,05,2.60
2008,03,28,00,06,2.60
2008,03,28,00,07,2.60
2008,03,28,00,08,2.60
2008,03,28,00,09,2.60
2008,03,28,00,10,2.60
2008,03,28,00,11,2.60
2008,03,28,00,12,2.60
2008,03,28,00,13,2.60
2008,03,28,00,14,2.60
2008,03,28,00,15,2.60
2008,03,28,00,16,2.60
2008,03,28,00,17,2.60
2008,03,28,00,18,2.60
2008,03,28,00,19,2.60
2008,03,28,00,20,2.60
2008,03,28,00,21,2.60
2008,03,28,00,22,2.60
2008,03,28,00,23,2.60
2008,03,28,00,24,2.60
2008,03,28,00,25,2.70
2008,03,28,00,26,2.70
2008,03,28,00,27,2.70
2008,03,28,00,28,2.70
2008,03,28,00,29,2.70
2008,03,28,00,30,2.70
2008,03,28,00,31,2.70
2008,03,28,00,32,2.70
2008,03,28,00,33,2.70
2008,03,28,00,34,2.70
2008,03,28,00,35,2.70
2008,03,28,00,36,2.70
2008,03,28,00,37,2.70
2008,03,28,00,38,2.70
2008,03,28,00,39,2.70
2008,03,28,00,40,2.70
2008,03,28,00,41,2.70
2008,03,28,00,42,2.70
2008,03,28,00,43,2.70
2008,03,28,00,44,2.70
2008,03,28,00,45,2.70
2008,03,28,00,46,2.70
2008,03,28,00,47,2.70
2008,03,28,00,48,2.80
2008,03,28,00,49,2.80
2008,03,28,00,50,2.80
2008,03,28,00,51,2.80
2008,03,28,00,52,2.80
2008,03,28,00,53,2.80
2008,03,28,00,54,2.80
2008,03,28,00,55,2.80
2008,03,28,00,56,2.80
2008,03,28,00,57,2.80
2008,03,28,00,58,2.80
2008,03,28,00,59,2.80
2008,03,28,01,00,2.80
2008,03,28,01,01,2.80
2008,03,28,01,02,2.80
2008,03,28,01,03,2.80
2008,03,28,01,04,2.80
2008,03,28,01,05,2.80
2008,03,28,01,06,2.80
2008,03,28,01,07,2.80
2008,03,28,01,08,2.80
2008,03,28,01,09,2.80
2008,03,28,01,10,2.80
2008,03,28,01,11,2.80
2008,03,28,01,12,2.80
2008,03,28,01,13,2.80
2008,03,28,01,14,2.80
2008,03,28,01,15,2.80
2008,03,28,01,16,2.80
2008,03,28,01,17,2.80
2008,03,28,01,18,2.80
2008,03,28,01,19,2.90
2008,03,28,01,20,2.90
2008,03,28,01,21,2.90
2008,03,28,01,22,2.90
2008,03,28,01,23,2.90
2008,03,28,01,24,2.90
2008,03,28,01,25,2.90
2008,03,28,01,26,2.90
2008,03,28,01,27,2.90
2008,03,28,01,28,3.00
2008,03,28,01,29,3.00
2008,03,28,01,30,3.00
2008,03,28,01,31,3.10
2008,03,28,01,32,3.10
2008,03,28,01,33,3.10
2008,03,28,01,34,3.10
2008,03,28,01,35,3.10
2008,03,28,01,36,3.10
2008,03,28,01,37,3.10
2008,03,28,01,38,3.10
2008,03,28,01,39,3.10
2008,03,28,01,40,3.10
2008,03,28,01,41,3.20
2008,03,28,01,42,3.20
2008,03,28,01,43,3.20
2008,03,28,01,44,3.20
2008,03,28,01,45,3.20
2008,03,28,01,46,3.30
2008,03,28,01,47,3.30
2008,03,28,01,48,3.30
2008,03,28,01,49,3.30
2008,03,28,01,50,3.30
2008,03,28,01,51,3.30
2008,03,28,01,52,3.30
2008,03,28,01,53,3.30
2008,03,28,01,54,3.30
2008,03,28,01,55,3.30
2008,03,28,01,56,3.30
2008,03,28,01,57,3.30
2008,03,28,01,58,3.30
2008,03,28,01,59,3.30
2008,03,28,02,00,3.40
2008,03,28,02,01,3.40
2008,03,28,02,02,3.40
2008,03,28,02,03,3.40
2008,03,28,02,04,3.40
2008,03,28,02,05,3.50
2008,03,28,02,06,3.50
2008,03,28,02,07,3.50
2008,03,28,02,08,3.50
2008,03,28,02,09,3.50
2008,03,28,02,10,3.50
2008,03,28,02,11,3.50
2008,03,28,02,12,3.50
2008,03,28,02,13,3.50
2008,03,28,02,14,3.50
2008,03,28,02,15,3.50
2008,03,28,02,16,3.50
2008,03,28,02,17,3.50
2008,03,28,02,18,3.50
2008,03,28,02,19,3.60
2008,03,28,02,20,3.60
2008,03,28,02,21,3.60
2008,03,28,02,22,3.60
2008,03,28,02,23,3.60
2008,03,28,02,24,3.60
2008,03,28,02,25,3.60
2008,03,28,02,26,3.60
2008,03,28,02,27,3.60
2008,03,28,02,28,3.60
2008,03,28,02,29,3.60
2008,03,28,02,30,3.60
2008,03,28,02,31,3.60
2008,03,28,02,32,3.60
2008,03,28,02,33,3.60
2008,03,28,02,34,3.60
2008,03,28,02,35,3.60
2008,03,28,02,36,3.60
2008,03,28,02,37,3.60
2008,03,28,02,38,3.60
2008,03,28,02,39,3.60
2008,03,28,02,40,3.60
2008,03,28,02,41,3.60
2008,03,28,02,42,3.60
2008,03,28,02,43,3.60
2008,03,28,02,44,3.60
2008,03,28,02,45,3.50
2008,03,28,02,46,3.50
2008,03,28,02,47,3.50
2008,03,28,02,48,3.50
2008,03,28,02,49,3.50
2008,03,28,02,50,3.40
2008,03,28,02,51,3.40
2008,03,28,02,52,3.40
2008,03,28,02,53,3.40
2008,03,28,02,54,3.40
2008,03,28,02,55,3.40
2008,03,28,02,56,3.40
2008,03,28,02,57,3.40
2008,03,28,02,58,3.40
2008,03,28,02,59,3.40
2008,03,28,03,00,3.40
2008,03,28,03,01,3.40
2008,03,28,03,02,3.40
2008,03,28,03,03,3.40
2008,03,28,03,04,3.40
2008,03,28,03,05,3.40
2008,03,28,03,06,3.40
2008,03,28,03,07,3.40
2008,03,28,03,08,3.40
2008,03,28,03,09,3.40
2008,03,28,03,10,3.40
2008,03,28,03,11,3.40
2008,03,28,03,12,3.40
2008,03,28,03,13,3.40
2008,03,28,03,14,3.40
2008,03,28,03,15,3.40
2008,03,28,03,16,3.40
2008,03,28,03,17,3.40
2008,03,28,03,18,3.40
2008,03,28,03,19,3.40
2008,03,28,03,20,3.40
2008,03,28,03,21,3.40
2008,03,28,03,22,3.40
2008,03,28,03,23,3.40
2008,03,28,03,24,3.40
2008,03,28,03,25,3.40
2008,03,28,03,26,3.40
2008,03,28,03,27,3.40
2008,03,28,03,28,3.40
2008,03,28,03,29,3.40
2008,03,28,03,30,3.40
2008,03,28,03,31,3.40
2008,03,28,03,32,3.40
2008,03,28,03,33,3.40
2008,03,28,03,34,3.40
2008,03,28,03,35,3.40
2008,03,28,03,36,3.40
2008,03,28,03,37,3.40
2008,03,28,03,38,3.40
2008,03,28,03,39,3.40
2008,03,28,03,40,3.40
2008,03,28,03,41,3.40
2008,03,28,03,42,3.40
2008,03,28,03,43,3.40
2008,03,28,03,44,3.40
2008,03,28,03,45,3.40
2008,03,28,03,46,3.40
2008,03,28,03,47,3.40
2008,03,28,03,48,3.40
2008,03,28,03,49,3.40
2008,03,28,03,50,3.40
2008,03,28,03,51,3.40
2008,03,28,03,52,3.40
2008,03,28,03,53,3.40
2008,03,28,03,54,3.40
2008,03,28,03,55,3.40
2008,03,28,03,56,3.40
2008,03,28,03,57,3.50
2008,03,28,03,58,3.50
2008,03,28,03,59,3.40
2008,03,28,04,00,3.40
2008,03,28,04,01,3.50
2008,03,28,04,02,3.40
2008,03,28,04,03,3.40
2008,03,28,04,04,3.40
2008,03,28,04,05,3.50
2008,03,28,04,06,3.50
2008,03,28,04,07,3.50
2008,03,28,04,08,3.50
2008,03,28,04,09,3.50
2008,03,28,04,10,3.50
2008,03,28,04,11,3.50
2008,03,28,04,12,3.50
2008,03,28,04,13,3.50
2008,03,28,04,14,3.50
2008,03,28,04,15,3.50
2008,03,28,04,16,3.50
2008,03,28,04,17,3.50
2008,03,28,04,18,3.50
2008,03,28,04,19,3.50
2008,03,28,04,20,3.50
2008,03,28,04,21,3.50
2008,03,28,04,22,3.50
2008,03,28,04,23,3.50
2008,03,28,04,24,3.50
2008,03,28,04,25,3.50
2008,03,28,04,26,3.50
2008,03,28,04,27,3.50
2008,03,28,04,28,3.50
2008,03,28,04,29,3.50
2008,03,28,04,30,3.50
2008,03,28,04,31,3.40
2008,03,28,04,32,3.40
2008,03,28,04,33,3.40
2008,03,28,04,34,3.40
2008,03,28,04,35,3.40
2008,03,28,04,36,3.40
2008,03,28,04,37,3.40
2008,03,28,04,38,3.40
2008,03,28,04,39,3.40
2008,03,28,04,40,3.40
2008,03,28,04,41,3.40
2008,03,28,04,42,3.50
2008,03,28,04,43,3.50
2008,03,28,04,44,3.50
2008,03,28,04,45,3.50
2008,03,28,04,46,3.50
2008,03,28,04,47,3.50
2008,03,28,04,48,3.50
2008,03,28,04,49,3.60
2008,03,28,04,50,3.60
2008,03,28,04,51,3.60
2008,03,28,04,52,3.60
2008,03,28,04,53,3.60
2008,03,28,04,54,3.60
2008,03,28,04,55,3.60
2008,03,28,04,56,3.60
2008,03,28,04,57,3.60
2008,03,28,04,58,3.60
2008,03,28,04,59,3.60
2008,03,28,05,00,3.60
2008,03,28,05,01,3.60
2008,03,28,05,02,3.60
2008,03,28,05,03,3.60
2008,03,28,05,04,3.60
2008,03,28,05,05,3.60
2008,03,28,05,06,3.60
2008,03,28,05,07,3.60
2008,03,28,05,08,3.60
2008,03,28,05,09,3.50
2008,03,28,05,10,3.50
2008,03,28,05,11,3.50
2008,03,28,05,12,3.50
2008,03,28,05,13,3.50
2008,03,28,05,14,3.40
2008,03,28,05,15,3.40
2008,03,28,05,16,3.40
2008,03,28,05,17,3.40
2008,03,28,05,18,3.40
2008,03,28,05,19,3.30
2008,03,28,05,20,3.30
2008,03,28,05,21,3.20
2008,03,28,05,22,3.20
2008,03,28,05,23,3.20
2008,03,28,05,24,3.10
2008,03,28,05,25,3.10
2008,03,28,05,26,3.00
2008,03,28,05,27,3.00
2008,03,28,05,28,2.90
2008,03,28,05,29,2.90
2008,03,28,05,30,2.80
2008,03,28,05,31,2.80
2008,03,28,05,32,2.80
2008,03,28,05,33,2.80
2008,03,28,05,34,2.80
2008,03,28,05,35,2.70
2008,03,28,05,36,2.70
2008,03,28,05,37,2.70
2008,03,28,05,38,2.70
2008,03,28,05,39,2.70
2008,03,28,05,40,2.70
2008,03,28,05,41,2.70
2008,03,28,05,42,2.70
2008,03,28,05,43,2.70
2008,03,28,05,44,2.70
2008,03,28,05,45,2.70
2008,03,28,05,46,2.70
2008,03,28,05,47,2.60
2008,03,28,05,48,2.60
2008,03,28,05,49,2.60
2008,03,28,05,50,2.60
2008,03,28,05,51,2.50
2008,03,28,05,52,2.50
2008,03,28,05,53,2.50
2008,03,28,05,54,2.40
2008,03,28,05,55,2.40
2008,03,28,05,56,2.40
2008,03,28,05,57,2.40
2008,03,28,05,58,2.30
2008,03,28,05,59,2.30
2008,03,28,06,00,2.30
2008,03,28,06,01,2.20
2008,03,28,06,02,2.20
2008,03,28,06,03,2.10
2008,03,28,06,04,2.10
2008,03,28,06,05,2.00
2008,03,28,06,06,1.90
2008,03,28,06,07,1.80
2008,03,28,06,08,1.80
2008,03,28,06,09,1.70
2008,03,28,06,10,1.60
2008,03,28,06,11,1.60
2008,03,28,06,12,1.50
2008,03,28,06,13,1.40
2008,03,28,06,14,1.40
2008,03,28,06,15,1.30
2008,03,28,06,16,1.30
2008,03,28,06,17,1.30
2008,03,28,06,18,1.30
2008,03,28,06,19,1.30
2008,03,28,06,20,1.30
2008,03,28,06,21,1.30
2008,03,28,06,22,1.30
2008,03,28,06,23,1.20
2008,03,28,06,24,1.20
2008,03,28,06,25,1.20
2008,03,28,06,26,1.20
2008,03,28,06,27,1.20
2008,03,28,06,28,1.20
2008,03,28,06,29,1.20
2008,03,28,06,30,1.20
2008,03,28,06,31,1.10
2008,03,28,06,32,1.10
2008,03,28,06,33,1.10
2008,03,28,06,34,1.10
2008,03,28,06,35,1.10
2008,03,28,06,36,1.10
2008,03,28,06,37,1.10
2008,03,28,06,38,1.10
2008,03,28,06,39,1.10
2008,03,28,06,40,1.10
2008,03,28,06,41,1.10
2008,03,28,06,42,1.10
2008,03,28,06,43,1.00
2008,03,28,06,44,1.00
2008,03,28,06,45,1.00
2008,03,28,06,46,1.00
2008,03,28,06,47,0.90
2008,03,28,06,48,0.90
2008,03,28,06,49,0.90
2008,03,28,06,50,0.90
2008,03,28,06,51,0.90
2008,03,28,06,52,0.90
2008,03,28,06,53,0.90
2008,03,28,06,54,0.90
2008,03,28,06,55,0.90
2008,03,28,06,56,0.90
2008,03,28,06,57,0.90
2008,03,28,06,58,0.90
2008,03,28,06,59,0.90
2008,03,28,07,00,0.80
2008,03,28,07,01,0.80
2008,03,28,07,02,0.80
2008,03,28,07,03,0.80
2008,03,28,07,04,0.80
2008,03,28,07,05,0.80
2008,03,28,07,06,0.80
2008,03,28,07,07,0.80
2008,03,28,07,08,0.80
2008,03,28,07,09,0.80
2008,03,28,07,10,0.80
2008,03,28,07,11,0.80
2008,03,28,07,12,0.80
2008,03,28,07,13,0.80
2008,03,28,07,14,0.80
2008,03,28,07,15,0.80
2008,03,28,07,16,0.80
2008,03,28,07,17,0.80
2008,03,28,07,18,0.80
2008,03,28,07,19,0.80
2008,03,28,07,20,0.90
2008,03,28,07,21,0.90
2008,03,28,07,22,0.90
2008,03,28,07,23,0.90
2008,03,28,07,24,0.90
2008,03,28,07,25,0.90
2008,03,28,07,26,1.00
2008,03,28,07,27,1.00
2008,03,28,07,28,1.00
2008,03,28,07,29,1.00
2008,03,28,07,30,1.00
2008,03,28,07,31,1.00
2008,03,28,07,32,1.00
2008,03,28,07,33,1.00
2008,03,28,07,34,1.00
2008,03,28,07,35,1.00
2008,03,28,07,36,1.10
2008,03,28,07,37,1.10
2008,03,28,07,38,1.00
2008,03,28,07,39,1.00
2008,03,28,07,40,1.10
2008,03,28,07,41,1.00
2008,03,28,07,42,1.00
2008,03,28,07,43,1.00
2008,03,28,07,44,1.00
2008,03,28,07,45,1.00
2008,03,28,07,46,1.00
2008,03,28,07,47,1.10
2008,03,28,07,48,1.00
2008,03,28,07,49,1.00
2008,03,28,07,50,1.00
2008,03,28,07,51,1.00
2008,03,28,07,52,1.00
2008,03,28,07,53,1.00
2008,03,28,07,54,1.00
2008,03,28,07,55,1.00
2008,03,28,07,56,1.00
2008,03,28,07,57,1.00
2008,03,28,07,58,1.00
2008,03,28,07,59,1.00
2008,03,28,08,00,1.00
2008,03,28,08,01,1.00
2008,03,28,08,02,1.00
2008,03,28,08,03,1.00
2008,03,28,08,04,1.00
2008,03,28,08,05,0.90
2008,03,28,08,06,1.00
2008,03,28,08,07,0.90
2008,03,28,08,08,1.00
2008,03,28,08,09,1.00
2008,03,28,08,10,1.00
2008,03,28,08,11,1.00
2008,03,28,08,12,1.00
2008,03,28,08,13,1.00
2008,03,28,08,14,1.00
2008,03,28,08,15,1.00
2008,03,28,08,16,1.00
2008,03,28,08,17,0.90
2008,03,28,08,18,0.90
2008,03,28,08,19,1.00
2008,03,28,08,20,0.90
2008,03,28,08,21,1.00
2008,03,28,08,22,1.00
2008,03,28,08,23,1.00
2008,03,28,08,24,1.00
2008,03,28,08,25,1.00
2008,03,28,08,26,1.00
2008,03,28,08,27,1.00
2008,03,28,08,28,1.10
2008,03,28,08,29,1.10
2008,03,28,08,30,1.10
2008,03,28,08,31,1.10
2008,03,28,08,32,1.10
2008,03,28,08,33,1.10
2008,03,28,08,34,1.10
2008,03,28,08,35,1.10
2008,03,28,08,36,1.10
2008,03,28,08,37,1.10
2008,03,28,08,38,1.10
2008,03,28,08,39,1.10
2008,03,28,08,40,1.10
2008,03,28,08,41,1.10
2008,03,28,08,42,1.10
2008,03,28,08,43,1.10
2008,03,28,08,44,1.10
2008,03,28,08,45,1.10
2008,03,28,08,46,1.10
2008,03,28,08,47,1.10
2008,03,28,08,48,1.10
2008,03,28,08,49,1.00
2008,03,28,08,50,1.00
2008,03,28,08,51,1.00
2008,03,28,08,52,1.00
2008,03,28,08,53,1.00
2008,03,28,08,54,1.00
2008,03,28,08,55,0.90
2008,03,28,08,56,0.90
2008,03,28,08,57,0.90
2008,03,28,08,58,0.90
2008,03,28,08,59,0.90
2008,03,28,09,00,0.90
2008,03,28,09,01,0.80
2008,03,28,09,02,0.80
2008,03,28,09,03,0.80
2008,03,28,09,04,0.80
2008,03,28,09,05,0.80
2008,03,28,09,06,0.80
2008,03,28,09,07,0.80
2008,03,28,09,08,0.80
2008,03,28,09,09,0.80
2008,03,28,09,10,0.80
2008,03,28,09,11,0.80
2008,03,28,09,12,0.80
2008,03,28,09,13,0.80
2008,03,28,09,14,0.80
2008,03,28,09,15,0.80
2008,03,28,09,16,0.80
2008,03,28,09,17,0.80
2008,03,28,09,18,0.80
2008,03,28,09,19,0.80
2008,03,28,09,20,0.80
2008,03,28,09,21,0.80
2008,03,28,09,22,0.80
2008,03,28,09,23,0.80
2008,03,28,09,24,0.80
2008,03,28,09,25,0.80
2008,03,28,09,26,0.80
2008,03,28,09,27,0.80
2008,03,28,09,28,0.80
2008,03,28,09,29,0.80
2008,03,28,09,30,0.70
2008,03,28,09,31,0.70
2008,03,28,09,32,0.70
2008,03,28,09,33,0.70
2008,03,28,09,34,0.70
2008,03,28,09,35,0.70
2008,03,28,09,36,0.70
2008,03,28,09,37,0.70
2008,03,28,09,38,0.70
2008,03,28,09,39,0.70
2008,03,28,09,40,0.70
2008,03,28,09,41,0.70
2008,03,28,09,42,0.70
2008,03,28,09,43,0.70
2008,03,28,09,44,0.60
2008,03,28,09,45,0.60
2008,03,28,09,46,0.60
2008,03,28,09,47,0.60
2008,03,28,09,48,0.60
2008,03,28,09,49,0.60
2008,03,28,09,50,0.60
2008,03,28,09,51,0.60
2008,03,28,09,52,0.60
2008,03,28,09,53,0.60
2008,03,28,09,54,0.60
2008,03,28,09,55,0.60
2008,03,28,09,56,0.60
2008,03,28,09,57,0.60
2008,03,28,09,58,0.60
2008,03,28,09,59,0.60
2008,03,28,10,00,0.60
2008,03,28,10,01,0.60
2008,03,28,10,02,0.60
2008,03,28,10,03,0.60
2008,03,28,10,04,0.60
2008,03,28,10,05,0.60
2008,03,28,10,06,0.60
2008,03,28,10,07,0.60
2008,03,28,10,08,0.70
2008,03,28,10,09,0.70
2008,03,28,10,10,0.70
2008,03,28,10,11,0.70
2008,03,28,10,12,0.70
2008,03,28,10,13,0.70
2008,03,28,10,14,0.70
2008,03,28,10,15,0.70
2008,03,28,10,16,0.70
2008,03,28,10,17,0.70
2008,03,28,10,18,0.70
2008,03,28,10,19,0.80
2008,03,28,10,20,0.80
2008,03,28,10,21,0.80
2008,03,28,10,22,0.80
2008,03,28,10,23,0.80
2008,03,28,10,24,0.80
2008,03,28,10,25,0.80
2008,03,28,10,26,0.80
2008,03,28,10,27,0.80
2008,03,28,10,28,0.80
2008,03,28,10,29,0.80
2008,03,28,10,30,0.80
2008,03,28,10,31,0.80
2008,03,28,10,32,0.80
2008,03,28,10,33,0.80
2008,03,28,10,34,0.80
2008,03,28,10,35,0.80
2008,03,28,10,36,0.80
2008,03,28,10,37,0.80
2008,03,28,10,38,0.80
2008,03,28,10,39,0.80
2008,03,28,10,40,0.70
2008,03,28,10,41,0.70
2008,03,28,10,42,0.70
2008,03,28,10,43,0.70
2008,03,28,10,44,0.70
2008,03,28,10,45,0.70
2008,03,28,10,46,0.70
2008,03,28,10,47,0.70
2008,03,28,10,48,0.70
2008,03,28,10,49,0.60
2008,03,28,10,50,0.60
2008,03,28,10,51,0.60
2008,03,28,10,52,0.60
2008,03,28,10,53,0.60
2008,03,28,10,54,0.60
2008,03,28,10,55,0.60
2008,03,28,10,56,0.60
2008,03,28,10,57,0.60
2008,03,28,10,58,0.60
2008,03,28,10,59,0.70
2008,03,28,11,00,0.70
2008,03,28,11,01,0.70
2008,03,28,11,02,0.70
2008,03,28,11,03,0.70
2008,03,28,11,04,0.70
2008,03,28,11,05,0.70
2008,03,28,11,06,0.70
2008,03,28,11,07,0.70
2008,03,28,11,08,0.70
2008,03,28,11,09,0.70
2008,03,28,11,10,0.70
2008,03,28,11,11,0.70
2008,03,28,11,12,0.70
2008,03,28,11,13,0.70
2008,03,28,11,14,0.70
2008,03,28,11,15,0.80
2008,03,28,11,16,0.80
2008,03,28,11,17,0.80
2008,03,28,11,18,0.80
2008,03,28,11,19,0.80
2008,03,28,11,20,0.80
2008,03,28,11,21,0.80
2008,03,28,11,22,0.80
2008,03,28,11,23,0.80
2008,03,28,11,24,0.80
2008,03,28,11,25,0.80
2008,03,28,11,26,0.80
2008,03,28,11,27,0.80
2008,03,28,11,28,0.80
2008,03,28,11,29,0.80
2008,03,28,11,30,0.80
2008,03,28,11,31,0.80
2008,03,28,11,32,0.80
2008,03,28,11,33,0.80
2008,03,28,11,34,0.80
2008,03,28,11,35,0.80
2008,03,28,11,36,0.80
2008,03,28,11,37,0.90
2008,03,28,11,38,0.90
2008,03,28,11,39,0.90
2008,03,28,11,40,0.90
2008,03,28,11,41,0.90
2008,03,28,11,42,0.90
2008,03,28,11,43,0.90
2008,03,28,11,44,0.90
2008,03,28,11,45,0.90
2008,03,28,11,46,0.90
2008,03,28,11,47,0.90
2008,03,28,11,48,0.90
2008,03,28,11,49,0.90
2008,03,28,11,50,0.90
2008,03,28,11,51,0.90
2008,03,28,11,52,0.90
2008,03,28,11,53,0.90
2008,03,28,11,54,0.90
2008,03,28,11,55,0.90
2008,03,28,11,56,0.90
2008,03,28,11,57,0.90
2008,03,28,11,58,0.90
2008,03,28,11,59,0.90
2008,03,28,12,00,0.90
2008,03,28,12,01,0.90
2008,03,28,12,02,0.80
2008,03,28,12,03,0.80
2008,03,28,12,04,0.80
2008,03,28,12,05,0.90
2008,03,28,12,06,0.90
2008,03,28,12,07,0.90
2008,03,28,12,08,0.90
2008,03,28,12,09,0.90
2008,03,28,12,10,0.90
2008,03,28,12,11,0.90
2008,03,28,12,12,0.90
2008,03,28,12,13,0.90
2008,03,28,12,14,0.90
2008,03,28,12,15,0.90
2008,03,28,12,16,0.90
2008,03,28,12,17,0.90
2008,03,28,12,18,0.90
2008,03,28,12,19,0.90
2008,03,28,12,20,0.90
2008,03,28,12,21,0.90
2008,03,28,12,22,0.90
2008,03,28,12,23,1.00
2008,03,28,12,24,1.00
2008,03,28,12,25,1.00
2008,03,28,12,26,1.00
2008,03,28,12,27,1.00
2008,03,28,12,28,1.00
2008,03,28,12,29,1.00
2008,03,28,12,30,1.00
2008,03,28,12,31,1.00
2008,03,28,12,32,1.00
2008,03,28,12,33,0.90
2008,03,28,12,34,0.90
2008,03,28,12,35,0.90
2008,03,28,12,36,0.90
2008,03,28,12,37,0.90
2008,03,28,12,38,0.90
2008,03,28,12,39,0.80
2008,03,28,12,40,0.80
2008,03,28,12,41,0.80
2008,03,28,12,42,0.80
2008,03,28,12,43,0.80
2008,03,28,12,44,0.70
2008,03,28,12,45,0.70
2008,03,28,12,46,0.70
2008,03,28,12,47,0.70
2008,03,28,12,48,0.70
2008,03,28,12,49,0.70
2008,03,28,12,50,0.60
2008,03,28,12,51,0.60
2008,03,28,12,52,0.60
2008,03,28,12,53,0.60
2008,03,28,12,54,0.60
2008,03,28,12,55,0.60
2008,03,28,12,56,0.60
2008,03,28,12,57,0.60
2008,03,28,12,58,0.60
2008,03,28,12,59,0.60
2008,03,28,13,00,0.70
2008,03,28,13,01,0.70
2008,03,28,13,02,0.70
2008,03,28,13,03,0.70
2008,03,28,13,04,0.70
2008,03,28,13,05,0.70
2008,03,28,13,06,0.70
2008,03,28,13,07,0.70
2008,03,28,13,08,0.70
2008,03,28,13,09,0.70
2008,03,28,13,10,0.70
2008,03,28,13,11,0.70
2008,03,28,13,12,0.70
2008,03,28,13,13,0.70
2008,03,28,13,14,0.70
2008,03,28,13,15,0.70
2008,03,28,13,16,0.70
2008,03,28,13,17,0.70
2008,03,28,13,18,0.70
2008,03,28,13,19,0.70
2008,03,28,13,20,0.70
2008,03,28,13,21,0.70
2008,03,28,13,22,0.80
2008,03,28,13,23,0.80
2008,03,28,13,24,0.80
2008,03,28,13,25,0.80
2008,03,28,13,26,0.80
2008,03,28,13,27,0.80
2008,03,28,13,28,0.80
2008,03,28,13,29,0.80
2008,03,28,13,30,0.80
2008,03,28,13,31,0.80
2008,03,28,13,32,0.70
2008,03,28,13,33,0.70
2008,03,28,13,34,0.70
2008,03,28,13,35,0.70
2008,03,28,13,36,0.70
2008,03,28,13,37,0.70
2008,03,28,13,38,0.70
2008,03,28,13,39,0.70
2008,03,28,13,40,0.70
2008,03,28,13,41,0.70
2008,03,28,13,42,0.60
2008,03,28,13,43,0.60
2008,03,28,13,44,0.60
2008,03,28,13,45,0.60
2008,03,28,13,46,0.60
2008,03,28,13,47,0.60
2008,03,28,13,48,0.60
2008,03,28,13,49,0.60
2008,03,28,13,50,0.60
2008,03,28,13,51,0.50
2008,03,28,13,52,0.50
2008,03,28,13,53,0.50
2008,03,28,13,54,0.50
2008,03,28,13,55,0.50
2008,03,28,13,56,0.50
2008,03,28,13,57,0.50
2008,03,28,13,58,0.50
2008,03,28,13,59,0.50
2008,03,28,14,00,0.50
2008,03,28,14,01,0.50
2008,03,28,14,02,0.50
2008,03,28,14,03,0.50
2008,03,28,14,04,0.50
2008,03,28,14,05,0.50
2008,03,28,14,06,0.50
2008,03,28,14,07,0.50
2008,03,28,14,08,0.50
2008,03,28,14,09,0.50
2008,03,28,14,10,0.50
2008,03,28,14,11,0.50
2008,03,28,14,12,0.50
2008,03,28,14,13,0.50
2008,03,28,14,14,0.60
2008,03,28,14,15,0.60
2008,03,28,14,16,0.60
2008,03,28,14,17,0.60
2008,03,28,14,18,0.60
2008,03,28,14,19,0.60
2008,03,28,14,20,0.60
2008,03,28,14,21,0.60
2008,03,28,14,22,0.60
2008,03,28,14,23,0.60
2008,03,28,14,24,0.60
2008,03,28,14,25,0.60
2008,03,28,14,26,0.60
2008,03,28,14,27,0.60
2008,03,28,14,28,0.60
2008,03,28,14,29,0.60
2008,03,28,14,30,0.50
2008,03,28,14,31,0.50
2008,03,28,14,32,0.50
2008,03,28,14,33,0.50
2008,03,28,14,34,0.40
2008,03,28,14,35,0.40
2008,03,28,14,36,0.40
2008,03,28,14,37,0.40
2008,03,28,14,38,0.40
2008,03,28,14,39,0.40
2008,03,28,14,40,0.40
2008,03,28,14,41,0.40
2008,03,28,14,42,0.40
2008,03,28,14,43,0.40
2008,03,28,14,44,0.40
2008,03,28,14,45,0.40
2008,03,28,14,46,0.40
2008,03,28,14,47,0.40
2008,03,28,14,48,0.40
2008,03,28,14,49,0.30
2008,03,28,14,50,0.30
2008,03,28,14,51,0.30
2008,03,28,14,52,0.30
2008,03,28,14,53,0.30
2008,03,28,14,54,0.30
2008,03,28,14,55,0.30
2008,03,28,14,56,0.30
2008,03,28,14,57,0.30
2008,03,28,14,58,0.30
2008,03,28,14,59,0.30
2008,03,28,15,00,0.30
2008,03,28,15,01,0.30
2008,03,28,15,02,0.30
2008,03,28,15,03,0.30
2008,03,28,15,04,0.30
2008,03,28,15,05,0.30
2008,03,28,15,06,0.30
2008,03,28,15,07,0.30
2008,03,28,15,08,0.30
2008,03,28,15,09,0.30
2008,03,28,15,10,0.30
2008,03,28,15,11,0.30
2008,03,28,15,12,0.30
2008,03,28,15,13,0.30
2008,03,28,15,14,0.30
2008,03,28,15,15,0.30
2008,03,28,15,16,0.30
2008,03,28,15,17,0.30
2008,03,28,15,18,0.30
2008,03,28,15,19,0.30
2008,03,28,15,20,0.30
2008,03,28,15,21,0.30
2008,03,28,15,22,0.30
2008,03,28,15,23,0.30
2008,03,28,15,24,0.30
2008,03,28,15,25,0.30
2008,03,28,15,26,0.30
2008,03,28,15,27,0.20
2008,03,28,15,28,0.20
2008,03,28,15,29,0.20
2008,03,28,15,30,0.20
2008,03,28,15,31,0.20
2008,03,28,15,32,0.20
2008,03,28,15,33,0.20
2008,03,28,15,34,0.20
2008,03,28,15,35,0.20
2008,03,28,15,36,0.30
2008,03,28,15,37,0.20
2008,03,28,15,38,0.30
2008,03,28,15,39,0.30
2008,03,28,15,40,0.30
2008,03,28,15,41,0.30
2008,03,28,15,42,0.30
2008,03,28,15,43,0.20
2008,03,28,15,44,0.20
2008,03,28,15,45,0.20
2008,03,28,15,46,0.20
2008,03,28,15,47,0.20
2008,03,28,15,48,0.20
2008,03,28,15,49,0.20
2008,03,28,15,50,0.20
2008,03,28,15,51,0.20
2008,03,28,15,52,0.20
2008,03,28,15,53,0.20
2008,03,28,15,54,0.20
2008,03,28,15,55,0.20
2008,03,28,15,56,0.20
2008,03,28,15,57,0.20
2008,03,28,15,58,0.20
2008,03,28,15,59,0.20
2008,03,28,16,00,0.20
2008,03,28,16,01,0.20
2008,03,28,16,02,0.20
2008,03,28,16,03,0.20
2008,03,28,16,04,0.20
2008,03,28,16,05,0.20
2008,03,28,16,06,0.20
2008,03,28,16,07,0.20
2008,03,28,16,08,0.20
2008,03,28,16,09,0.20
2008,03,28,16,10,0.20
2008,03,28,16,11,0.20
2008,03,28,16,12,0.20
2008,03,28,16,13,0.20
2008,03,28,16,14,0.20
2008,03,28,16,15,0.20
2008,03,28,16,16,0.20
2008,03,28,16,17,0.20
2008,03,28,16,18,0.20
2008,03,28,16,19,0.20
2008,03,28,16,20,0.20
2008,03,28,16,21,0.20
2008,03,28,16,22,0.20
2008,03,28,16,23,0.20
2008,03,28,16,24,0.20
2008,03,28,16,25,0.20
2008,03,28,16,26,0.20
2008,03,28,16,27,0.20
2008,03,28,16,28,0.20
2008,03,28,16,29,0.20
2008,03,28,16,30,0.20
2008,03,28,16,31,0.20
2008,03,28,16,32,0.30
2008,03,28,16,33,0.30
2008,03,28,16,34,0.30
2008,03,28,16,35,0.30
2008,03,28,16,36,0.30
2008,03,28,16,37,0.30
2008,03,28,16,38,0.30
2008,03,28,16,39,0.30
2008,03,28,16,40,0.30
2008,03,28,16,41,0.30
2008,03,28,16,42,0.30
2008,03,28,16,43,0.30
2008,03,28,16,44,0.30
2008,03,28,16,45,0.30
2008,03,28,16,46,0.30
2008,03,28,16,47,0.40
2008,03,28,16,48,0.40
2008,03,28,16,49,0.40
2008,03,28,16,50,0.40
2008,03,28,16,51,0.40
2008,03,28,16,52,0.40
2008,03,28,16,53,0.40
2008,03,28,16,54,0.40
2008,03,28,16,55,0.40
2008,03,28,16,56,0.40
2008,03,28,16,57,0.40
2008,03,28,16,58,0.40
2008,03,28,16,59,0.40
2008,03,28,17,00,0.50
2008,03,28,17,01,0.50
2008,03,28,17,02,0.50
2008,03,28,17,03,0.50
2008,03,28,17,04,0.50
2008,03,28,17,05,0.50
2008,03,28,17,06,0.50
2008,03,28,17,07,0.50
2008,03,28,17,08,0.50
2008,03,28,17,09,0.50
2008,03,28,17,10,0.60
2008,03,28,17,11,0.60
2008,03,28,17,12,0.60
2008,03,28,17,13,0.60
2008,03,28,17,14,0.60
2008,03,28,17,15,0.60
2008,03,28,17,16,0.60
2008,03,28,17,17,0.60
2008,03,28,17,18,0.60
2008,03,28,17,19,0.60
2008,03,28,17,20,0.60
2008,03,28,17,21,0.60
2008,03,28,17,22,0.60
2008,03,28,17,23,0.60
2008,03,28,17,24,0.70
2008,03,28,17,25,0.70
2008,03,28,17,26,0.70
2008,03,28,17,27,0.70
2008,03,28,17,28,0.70
2008,03,28,17,29,0.70
2008,03,28,17,30,0.70
2008,03,28,17,31,0.70
2008,03,28,17,32,0.70
2008,03,28,17,33,0.70
2008,03,28,17,34,0.70
2008,03,28,17,35,0.70
2008,03,28,17,36,0.70
2008,03,28,17,37,0.70
2008,03,28,17,38,0.70
2008,03,28,17,39,0.70
2008,03,28,17,40,0.70
2008,03,28,17,41,0.70
2008,03,28,17,42,0.70
2008,03,28,17,43,0.70
2008,03,28,17,44,0.70
2008,03,28,17,45,0.70
2008,03,28,17,46,0.70
2008,03,28,17,47,0.70
2008,03,28,17,48,0.70
2008,03,28,17,49,0.70
2008,03,28,17,50,0.70
2008,03,28,17,51,0.70
2008,03,28,17,52,0.70
2008,03,28,17,53,0.70
2008,03,28,17,54,0.70
2008,03,28,17,55,0.70
2008,03,28,17,56,0.70
2008,03,28,17,57,0.70
2008,03,28,17,58,0.70
2008,03,28,17,59,0.70
2008,03,28,18,00,0.70
2008,03,28,18,01,0.70
2008,03,28,18,02,0.70
2008,03,28,18,03,0.70
2008,03,28,18,04,0.70
2008,03,28,18,05,0.80
2008,03,28,18,06,0.80